Wetbulb
47.48 50.76 57.86 59.38 61.22 61.90 62.16 62.79 63.40 64.53 66.55 67.15 67.59 67.47 67.61 67.07 67.13 66.76 66.50 66.46 66.61 66.78 68.70 69.58 69.70 70.17 70.09 70.32 70.57 70.57 69.67 70.37 70.49 70.59 70.37 70.35 69.99 69.41 68.12 68.50 68.28 66.86 67.76
48.90 51.82 56.64 58.78 60.46 61.36 61.72 62.28 63.37 64.43 65.51 66.64 67.02 67.04 66.99 67.02 67.04 66.86 66.45 66.26 66.43 66.76 67.33 68.73 69.40 69.18 69.85 69.90 69.76 70.20 69.90 70.59 70.01 69.29 68.87 68.27 67.86 67.40 67.01 66.30 66.87 65.64 66.34
49.72 51.83 52.41 58.12 59.81 60.81 61.38 62.53 63.21 64.02 64.79 65.92 66.17 66.28 66.45 66.46 66.43 66.50 66.20 65.81 66.00 66.82 67.00 67.67 68.05 68.55 68.41 69.28 69.93 69.81 70.05 69.79 68.95 68.34 67.70 63.28 63.39 66.78 66.29 66.94 66.69 66.50 65.97
49.96 51.30 51.76 57.38 59.28 60.36 61.45 62.55 62.91 63.50 64.09 65.29 65.05 65.24 65.06 65.28 65.51 65.67 65.88 65.57 65.52 66.15 66.66 66.70 67.07 67.09 67.95 68.02 69.30 69.47 69.52 69.36 68.36 67.55 65.22 63.73 63.79 66.30 65.84 65.93 66.09 65.53 65.10
48.69 50.53 51.77 57.08 58.92 60.20 60.93 61.74 61.99 62.48 63.08 63.41 64.32 64.87 64.73 64.57 64.27 64.24 64.27 64.27 64.75 65.36 65.73 66.22 66.50 66.59 66.82 67.13 67.51 69.35 69.28 69.03 67.47 66.69 64.73 62.89 62.13 65.19 65.77 65.51 65.32 64.70 64.75
48.08 49.84 51.97 56.58 58.44 59.75 59.73 59.99 60.89 61.58 62.56 63.22 63.44 63.82 63.87 63.79 63.30 63.16 63.12 63.19 63.67 63.97 64.66 64.86 65.50 65.85 66.02 66.30 67.07 68.72 68.77 68.88 66.98 64.89 64.15 63.87 61.63 66.07 65.84 65.01 64.11 64.21 64.47
46.61 48.68 50.12 55.30 56.96 58.44 59.41 59.40 60.03 59.66 60.75 61.00 61.14 60.86 62.19 62.92 62.56 62.02 62.32 62.07 62.64 63.11 63.43 63.68 63.52 64.07 64.35 64.99 65.59 66.63 68.96 67.70 65.72 64.24 62.05 61.65 61.01 65.87 65.57 64.50 63.47 63.93 63.33
46.07 47.92 49.17 52.43 54.91 56.72 58.10 58.18 58.72 58.06 58.52 58.53 58.60 58.67 59.50 60.35 60.96 61.11 61.19 61.29 61.88 61.77 62.20 62.21 62.97 63.38 63.06 63.79 64.21 65.36 67.50 66.36 64.62 63.50 60.16 60.83 64.66 65.54 64.79 63.78 63.81 63.68 63.28
44.61 44.91 46.16 48.31 51.26 53.89 55.34 55.39 56.50 56.25 56.75 56.30 56.29 56.07 56.21 57.39 57.95 58.73 58.72 59.75 60.74 60.33 60.25 60.78 61.24 61.65 61.99 62.73 62.39 63.94 65.23 65.32 64.52 63.02 60.48 61.01 64.96 65.20 64.45 64.27 63.98 63.05 62.54
41.63 41.93 42.91 45.94 49.10 50.33 50.96 53.31 54.85 54.02 53.59 53.62 53.25 52.48 52.74 53.78 55.27 55.62 55.93 57.08 58.76 58.69 58.33 58.95 59.65 60.35 60.65 60.83 60.96 60.39 63.63 63.43 63.32 62.72 60.83 61.15 64.96 64.94 64.82 64.76 63.45 62.85 62.38
40.06 39.37 40.80 43.30 47.77 50.16 50.21 50.53 51.89 51.48 50.84 50.47 50.15 49.80 49.71 49.78 49.81 51.64 53.95 55.41 56.73 56.69 57.20 57.34 58.29 58.64 58.10 57.97 58.99 59.47 59.79 63.67 62.41 61.78 60.88 63.56 65.53 65.11 65.65 64.04 62.71 61.97 61.69
36.09 37.58 39.01 40.64 44.30 48.70 50.07 48.69 48.66 48.64 47.75 47.72 47.35 46.46 47.06 47.28 47.50 49.28 50.80 53.05 54.14 54.29 55.23 56.44 56.28 56.13 55.23 55.24 56.70 58.18 57.79 58.11 60.25 60.11 60.68 63.06 63.45 64.94 65.36 63.14 61.94 61.39 61.27
35.37 36.92 37.87 39.36 41.42 46.82 46.62 47.64 47.01 46.98 46.45 46.69 45.69 45.63 45.16 45.67 45.73 46.25 47.65 49.69 50.65 51.80 51.40 52.88 52.48 52.74 52.92 53.33 54.57 55.13 55.44 56.41 58.80 59.23 60.46 61.40 63.01 65.08 64.55 62.94 61.98 61.91 60.95
34.44 35.43 36.30 37.62 39.56 42.57 45.37 46.06 43.57 45.35 43.81 44.64 45.23 44.64 43.30 43.44 43.50 44.35 44.93 46.45 48.06 49.59 50.15 50.80 51.57 51.42 51.35 51.66 51.95 53.32 52.89 53.60 54.08 57.78 57.96 59.38 62.19 64.25 64.12 62.68 61.75 62.11 60.70
33.37 34.80 35.91 37.55 39.31 40.56 43.08 42.90 40.75 40.69 40.25 41.88 41.69 41.89 42.72 41.80 41.88 43.15 43.28 44.26 45.12 46.46 48.04 49.94 50.67 50.50 49.90 49.58 49.84 50.04 50.30 51.24 51.90 53.09 54.95 55.94 59.97 62.74 63.55 62.71 63.13 62.06 60.55
34.07 34.71 37.33 39.15 40.05 40.52 40.05 39.61 38.88 38.56 38.16 38.48 38.55 39.19 39.60 41.34 40.89 41.26 42.16 42.73 43.50 44.84 46.75 49.04 50.12 50.12 48.80 48.55 47.67 47.88 48.08 48.98 49.70 49.81 49.97 51.42 54.55 58.00 62.80 62.87 62.57 61.43 60.58
33.65 36.22 37.86 39.66 39.38 39.31 39.50 39.97 39.94 39.45 38.63 37.99 38.15 38.01 38.21 38.72 38.84 39.28 40.81 41.97 42.65 44.47 45.59 46.64 48.61 49.96 48.15 47.52 46.30 46.32 46.36 47.00 47.81 48.01 47.78 47.58 49.61 51.39 58.05 62.25 62.03 60.76 61.22
32.30 35.32 37.42 39.62 38.34 38.67 38.94 39.59 40.26 40.54 38.58 38.17 37.82 37.11 37.56 37.77 37.62 38.04 39.35 40.02 41.37 43.08 43.93 43.89 44.70 47.99 47.06 45.94 44.88 44.37 44.64 45.30 46.21 46.50 46.75 46.55 47.13 47.40 49.16 54.47 61.04 60.70 60.33
32.20 34.74 35.70 36.90 36.75 37.58 38.09 39.09 38.70 38.90 38.48 37.33 36.55 36.35 36.53 37.10 36.88 35.42 37.73 39.94 40.91 40.91 41.75 42.38 42.88 45.19 45.69 45.52 45.13 43.83 43.43 43.50 44.15 45.16 45.31 45.42 45.87 46.18 46.79 49.26 52.55 56.34 59.50
31.77 34.08 35.13 36.28 35.68 36.47 36.20 36.42 36.15 36.31 36.92 36.13 34.80 36.11 36.23 36.31 36.01 34.17 35.22 37.47 38.90 39.92 39.69 41.18 41.08 42.76 44.81 44.13 43.95 42.85 42.73 42.93 43.32 43.37 43.89 45.02 45.21 45.35 45.83 46.05 47.25 48.65 55.52
31.59 32.92 33.77 34.31 34.07 34.19 33.41 33.28 33.54 32.99 34.23 34.79 35.29 35.75 35.66 35.45 35.36 33.80 33.21 34.64 35.92 37.94 38.97 39.76 40.78 40.40 41.62 44.46 43.13 42.73 42.40 42.31 41.85 42.27 42.97 43.54 43.93 44.87 44.81 44.97 45.78 46.30 48.76
30.32 31.40 32.86 33.70 32.97 33.43 33.31 33.40 32.86 32.89 33.31 33.53 34.43 34.80 35.45 35.04 34.56 33.72 32.56 32.51 34.39 35.34 36.65 38.21 38.83 38.64 40.19 42.03 42.55 42.09 39.88 40.93 41.52 41.70 42.19 42.19 42.38 43.64 43.86 44.25 44.71 45.18 46.39
29.70 30.36 32.77 32.06 32.11 31.84 32.50 32.86 32.40 32.17 32.36 31.82 31.45 31.89 33.18 34.44 34.09 33.04 32.45 32.13 32.30 34.37 34.58 35.98 38.16 38.10 36.63 39.28 40.64 42.51 38.85 37.16 39.59 40.98 40.59 41.28 41.50 41.99 42.47 43.12 43.77 44.35 44.26
29.97 31.31 31.47 31.56 31.34 32.34 31.22 30.29 28.79 27.96 27.26 29.24 29.44 30.44 31.14 32.26 32.17 32.25 32.22 31.84 31.61 32.39 33.81 35.14 38.02 38.22 38.19 35.48 38.43 40.73 42.54 42.17 37.77 36.43 39.80 40.05 40.94 41.29 41.69 42.09 42.30 43.41 43.46
31.29 29.46 29.28 29.94 30.10 29.98 29.54 28.82 27.46 26.29 27.57 28.26 27.89 27.71 28.44 29.52 30.29 30.39 30.73 31.05 30.94 31.47 32.61 34.57 35.37 36.61 37.93 36.44 35.93 35.72 38.82 42.29 42.05 39.27 36.52 37.97 39.35 40.52 41.84 41.56 41.83 41.76 42.62
29.63 28.66 28.55 28.53 28.23 28.58 27.89 27.23 25.90 24.69 24.94 24.78 24.98 24.79 25.54 26.71 27.43 28.02 28.97 29.63 30.67 30.84 31.23 33.50 34.98 34.51 35.96 36.98 36.56 36.03 35.59 36.35 39.29 39.14 37.56 37.85 37.70 39.27 40.90 41.66 41.17 41.21 41.35
MSLP
1024.63 1024.36 1023.92 1023.31 1022.48 1021.80 1021.17 1020.51 1019.78 1019.12 1018.34 1017.64 1017.01 1016.47 1015.97 1015.69 1015.31 1014.83 1014.67 1014.31 1013.79 1013.63 1013.04 1012.61 1012.30 1012.18 1011.94 1011.84 1011.59 1011.45 1011.39 1011.34 1011.38 1011.57 1011.54 1011.64 1011.88 1012.06 1012.41 1012.35 1012.43 1012.54 1012.82
1025.17 1024.68 1024.27 1023.70 1022.90 1022.05 1021.39 1020.82 1020.05 1019.18 1018.53 1017.83 1017.32 1016.90 1016.41 1015.93 1015.35 1015.13 1014.70 1014.58 1014.10 1013.57 1013.58 1012.80 1012.57 1012.36 1011.77 1011.52 1011.35 1011.25 1011.32 1011.31 1011.30 1011.47 1011.59 1011.68 1011.90 1012.15 1012.39 1012.38 1012.49 1012.48 1012.98
1025.19 1024.73 1024.34 1023.77 1023.13 1022.34 1021.60 1021.01 1020.21 1019.49 1018.77 1018.08 1017.61 1017.25 1016.82 1016.33 1015.92 1015.37 1015.11 1014.80 1014.21 1013.67 1013.52 1013.13 1012.62 1012.20 1011.75 1011.43 1011.15 1010.98 1010.99 1011.15 1011.18 1011.32 1011.56 1011.77 1012.01 1012.25 1012.31 1012.40 1012.47 1012.59 1012.86
1025.39 1024.91 1024.49 1023.82 1023.17 1022.53 1021.89 1021.32 1020.58 1019.91 1019.35 1018.58 1017.85 1017.56 1017.23 1016.83 1016.43 1015.80 1015.22 1015.07 1014.55 1014.08 1013.45 1012.88 1012.71 1012.03 1011.62 1011.32 1010.84 1010.68 1010.58 1010.82 1010.86 1011.05 1011.43 1011.62 1011.72 1011.99 1012.24 1012.45 1012.39 1012.62 1012.88
1025.58 1025.17 1024.69 1023.97 1023.32 1022.60 1022.15 1021.62 1021.07 1020.39 1019.87 1019.09 1018.43 1017.80 1017.38 1017.01 1016.65 1016.20 1015.76 1015.23 1014.87 1014.26 1013.74 1013.05 1012.59 1012.02 1011.56 1011.23 1010.95 1010.24 1010.20 1010.44 1010.67 1010.92 1011.13 1011.45 1011.55 1011.58 1011.97 1012.33 1012.43 1012.62 1012.88
1025.81 1025.44 1025.00 1024.15 1023.59 1022.89 1022.57 1021.97 1021.39 1020.86 1020.16 1019.61 1018.97 1018.48 1017.71 1017.19 1016.97 1016.58 1016.11 1015.58 1015.23 1014.59 1014.05 1013.28 1012.70 1011.97 1011.70 1011.24 1010.54 1009.85 1009.61 1009.99 1010.35 1010.67 1010.88 1011.06 1011.20 1011.23 1011.67 1012.01 1012.45 1012.68 1012.86
1026.25 1025.79 1025.17 1024.61 1024.10 1023.45 1022.86 1022.36 1021.63 1021.19 1020.68 1020.42 1019.82 1019.30 1018.54 1017.73 1017.26 1016.87 1016.38 1015.93 1015.36 1014.68 1014.06 1013.69 1013.08 1012.48 1011.76 1011.08 1010.47 1009.64 1009.15 1009.21 1009.68 1010.06 1010.46 1010.56 1010.80 1010.93 1011.40 1011.88 1012.33 1012.63 1012.92
1026.50 1026.06 1025.62 1025.11 1024.45 1023.87 1023.35 1022.92 1022.16 1021.91 1021.38 1021.17 1020.70 1020.00 1019.40 1018.66 1017.89 1017.33 1016.64 1016.04 1015.34 1014.87 1014.23 1013.82 1013.12 1012.46 1011.75 1010.88 1010.16 1009.23 1008.57 1008.75 1009.14 1009.54 1009.92 1010.08 1010.15 1010.62 1011.21 1011.68 1012.19 1012.59 1012.94
1026.88 1026.46 1025.95 1025.45 1024.88 1024.47 1024.18 1023.62 1023.03 1022.73 1022.23 1021.70 1021.20 1020.67 1019.93 1019.25 1018.52 1017.86 1017.42 1016.50 1015.70 1015.24 1014.67 1013.97 1013.25 1012.43 1011.72 1010.93 1010.08 1009.03 1007.97 1008.10 1008.19 1009.02 1009.55 1009.52 1009.85 1010.33 1010.94 1011.58 1011.99 1012.42 1012.84
1027.02 1026.72 1026.28 1025.85 1025.28 1024.86 1024.62 1024.17 1023.66 1023.36 1023.20 1022.67 1022.05 1021.38 1020.76 1019.95 1019.10 1018.34 1017.59 1016.98 1016.18 1015.57 1014.84 1014.18 1013.41 1012.49 1011.84 1010.91 1010.13 1009.21 1007.34 1007.51 1007.86 1008.55 1009.49 1009.10 1009.53 1009.93 1010.60 1011.41 1011.88 1012.37 1012.92
1027.55 1027.30 1026.95 1026.46 1025.71 1025.19 1024.74 1024.27 1024.02 1023.92 1023.59 1022.97 1022.55 1022.05 1021.18 1020.48 1019.80 1018.97 1018.19 1017.21 1016.58 1015.89 1015.23 1014.30 1013.66 1012.89 1012.14 1011.43 1010.57 1009.61 1007.73 1006.38 1007.39 1008.13 1009.26 1009.05 1009.14 1009.70 1010.35 1011.15 1011.77 1012.30 1012.74
1028.15 1027.70 1027.31 1026.61 1026.15 1025.65 1025.13 1024.77 1024.47 1024.10 1023.96 1023.68 1023.37 1022.93 1022.09 1021.26 1020.57 1019.72 1018.71 1017.88 1017.07 1016.21 1015.59 1014.75 1014.14 1013.33 1012.65 1011.98 1011.00 1009.90 1008.70 1008.49 1007.06 1008.44 1009.09 1009.03 1009.06 1009.53 1010.10 1010.93 1011.45 1012.03 1012.59
1028.44 1027.99 1027.64 1027.11 1026.51 1026.17 1025.79 1025.51 1025.07 1024.64 1024.37 1024.09 1023.76 1023.24 1022.74 1021.65 1020.98 1020.17 1019.38 1018.64 1017.65 1016.76 1015.91 1015.17 1014.59 1013.93 1013.16 1012.49 1011.52 1010.68 1009.74 1008.58 1008.00 1008.63 1009.38 1009.31 1008.89 1009.34 1009.98 1010.69 1010.96 1011.72 1012.36
1028.87 1028.49 1028.16 1027.68 1026.99 1026.59 1026.24 1025.99 1025.63 1025.11 1024.81 1024.51 1024.36 1023.97 1023.11 1022.60 1021.84 1021.02 1020.32 1019.33 1018.39 1017.40 1016.43 1015.59 1014.82 1014.36 1013.54 1012.89 1012.08 1011.35 1010.83 1010.06 1009.53 1009.17 1009.70 1009.63 1009.69 1009.36 1010.04 1010.33 1010.60 1011.41 1012.10
1029.15 1028.73 1028.35 1027.95 1027.57 1027.05 1026.57 1026.25 1025.78 1025.47 1025.17 1025.04 1024.63 1024.32 1023.91 1023.25 1022.74 1021.67 1020.82 1020.03 1019.03 1018.06 1017.08 1015.88 1015.05 1014.44 1013.93 1013.43 1012.68 1012.21 1011.67 1011.18 1010.60 1010.49 1010.35 1010.34 1010.08 1009.88 1009.93 1010.14 1010.48 1011.13 1011.50
1028.97 1028.72 1028.41 1028.10 1027.79 1027.45 1027.07 1026.69 1026.26 1025.65 1025.35 1025.31 1025.22 1024.93 1024.50 1024.00 1023.30 1022.67 1021.68 1020.70 1019.81 1018.65 1017.60 1016.39 1015.21 1014.80 1014.37 1013.80 1013.26 1012.82 1012.37 1011.93 1011.35 1011.09 1010.94 1010.59 1010.76 1010.36 1009.61 1010.00 1010.31 1010.95 1011.21
1029.07 1028.92 1028.54 1028.14 1028.00 1027.76 1027.46 1027.07 1026.57 1026.09 1025.79 1025.65 1025.46 1025.28 1024.88 1024.35 1023.84 1023.09 1022.23 1021.17 1020.16 1019.03 1018.06 1016.89 1015.59 1014.78 1014.33 1014.00 1013.71 1013.51 1013.04 1012.37 1012.03 1011.86 1011.72 1011.63 1011.84 1010.84 1010.10 1010.01 1010.28 1010.79 1010.98
1029.27 1029.13 1028.93 1028.54 1028.37 1028.08 1027.77 1027.40 1026.87 1026.48 1026.42 1026.24 1025.91 1025.59 1025.12 1024.62 1024.16 1023.44 1022.73 1021.67 1020.93 1019.73 1018.62 1017.56 1016.53 1015.15 1014.62 1014.37 1014.15 1013.77 1013.64 1013.07 1012.65 1012.33 1012.28 1012.60 1012.39 1011.70 1011.46 1010.90 1010.14 1010.71 1010.80
1029.49 1029.30 1029.16 1028.97 1028.80 1028.53 1028.15 1027.65 1027.14 1026.65 1026.36 1026.30 1026.14 1025.92 1025.64 1025.17 1024.62 1024.11 1023.20 1021.92 1020.98 1020.15 1019.21 1018.19 1017.15 1015.97 1014.91 1014.38 1014.20 1013.96 1014.05 1013.60 1013.14 1012.84 1012.97 1012.94 1012.89 1012.74 1012.40 1011.78 1011.09 1011.34 1011.17
1029.51 1029.47 1029.35 1029.13 1029.02 1028.76 1028.55 1028.15 1027.39 1026.86 1026.73 1026.62 1026.60 1026.28 1025.96 1025.55 1025.06 1024.53 1023.65 1022.47 1021.31 1020.62 1019.92 1018.84 1017.84 1016.43 1015.28 1014.79 1014.35 1014.17 1014.27 1013.99 1013.71 1013.49 1013.44 1013.46 1013.36 1013.35 1013.13 1012.52 1012.17 1012.34 1011.93
1029.60 1029.70 1029.58 1029.42 1029.28 1029.09 1028.97 1028.48 1027.92 1027.73 1027.38 1027.13 1026.99 1026.64 1026.15 1025.87 1025.37 1024.85 1024.07 1023.03 1022.18 1021.37 1020.62 1019.57 1018.56 1017.04 1015.97 1014.97 1014.52 1014.21 1014.22 1014.16 1014.08 1013.91 1014.03 1013.74 1013.78 1013.67 1013.48 1012.84 1013.67 1012.87 1013.18
1029.92 1029.87 1029.89 1029.87 1029.70 1029.58 1029.31 1028.87 1028.62 1028.31 1028.00 1027.63 1027.29 1026.98 1026.61 1026.21 1025.82 1025.21 1024.64 1023.84 1022.88 1021.97 1020.95 1019.78 1018.94 1017.78 1016.99 1015.86 1014.96 1014.48 1014.27 1014.36 1014.27 1014.10 1014.01 1014.13 1014.45 1014.22 1014.03 1014.08 1014.32 1014.29 1014.23
1030.06 1030.18 1030.18 1030.10 1030.09 1030.00 1029.79 1029.29 1028.92 1028.65 1028.43 1028.21 1028.00 1027.55 1027.20 1026.73 1026.28 1025.68 1024.92 1024.11 1023.41 1022.47 1021.56 1020.69 1019.59 1018.74 1018.07 1016.86 1015.96 1015.00 1014.36 1014.48 1014.42 1014.39 1014.31 1014.35 1014.51 1014.37 1014.64 1014.74 1015.08 1014.97 1014.81
1030.15 1030.25 1030.36 1030.39 1030.29 1030.17 1030.23 1029.92 1029.60 1029.68 1029.56 1029.25 1028.80 1028.30 1027.71 1027.21 1026.70 1026.01 1025.17 1024.39 1023.86 1023.05 1022.10 1021.38 1020.44 1019.85 1019.10 1017.98 1016.92 1015.78 1015.00 1014.70 1014.78 1014.74 1014.66 1014.74 1014.81 1014.80 1014.98 1015.13 1015.31 1015.12 1015.06
1030.24 1030.60 1030.59 1030.64 1030.67 1030.71 1030.64 1030.29 1030.15 1030.20 1030.28 1029.83 1029.32 1028.85 1028.17 1027.65 1027.13 1026.30 1025.50 1024.85 1024.18 1023.46 1022.66 1021.85 1021.10 1020.39 1019.55 1019.26 1018.34 1017.06 1015.90 1014.91 1014.83 1014.74 1014.56 1014.74 1015.00 1015.10 1015.12 1015.21 1015.31 1015.27 1015.26
1030.45 1030.62 1030.74 1030.77 1031.01 1031.22 1030.96 1030.72 1030.61 1030.80 1030.73 1030.44 1029.76 1029.52 1028.98 1028.50 1027.73 1026.94 1026.16 1025.30 1024.65 1023.79 1023.04 1022.21 1021.52 1020.92 1020.13 1019.59 1018.84 1017.96 1017.27 1016.41 1015.23 1014.67 1014.67 1014.77 1015.09 1015.19 1015.07 1015.04 1015.36 1015.47 1015.54
Wind_Speed
9 10 24 26 27 26 26 25 26 26 26 26 24 23 22 20 19 20 20 21 19 22 23 19 18 19 18 19 18 13 10 9 10 10 11 12 11 11 9 11 9 8 10
7 11 21 24 25 25 25 25 25 24 24 25 24 24 23 23 22 22 22 21 22 18 21 23 20 19 19 18 18 16 10 9 11 11 10 10 9 9 9 7 11 9 9
10 11 11 23 23 24 24 25 24 24 25 26 25 25 26 25 25 22 21 21 22 23 21 22 22 22 20 20 17 16 14 12 13 12 11 6 6 11 10 13 13 13 12
10 10 12 22 23 23 24 24 25 25 25 26 25 24 24 25 25 25 24 24 23 22 23 21 23 22 23 22 19 16 15 17 15 14 7 7 9 13 11 11 13 13 12
9 11 13 22 23 22 25 25 26 26 25 25 27 25 25 24 25 26 25 25 24 24 24 24 22 22 22 23 23 17 16 18 13 12 9 9 6 12 12 12 12 12 11
10 12 14 24 24 23 26 26 26 26 26 29 29 29 26 24 25 25 25 25 24 24 24 25 26 23 22 23 20 20 18 20 18 10 8 10 9 16 15 13 12 11 10
8 10 12 24 24 23 25 26 27 29 28 29 27 29 29 26 25 26 25 25 25 24 25 24 24 24 24 24 25 21 18 22 14 10 7 10 10 18 16 15 12 12 13
9 12 12 16 24 24 25 26 26 29 28 28 29 30 27 27 26 26 26 25 25 25 25 25 23 23 24 24 26 23 18 20 14 11 9 10 16 19 16 15 15 14 13
9 12 12 12 15 19 25 26 25 28 28 29 29 30 28 24 25 25 25 26 26 26 25 24 25 25 24 23 24 23 15 20 16 5 9 9 19 19 18 17 16 15 13
11 10 11 11 11 11 13 23 24 27 27 28 29 30 26 26 26 24 23 24 25 25 25 25 24 25 25 23 21 23 13 19 9 6 7 8 20 20 20 20 17 15 15
9 8 11 11 10 11 11 11 17 21 23 24 23 27 19 13 17 21 21 25 24 23 24 24 24 23 24 20 19 18 16 4 9 5 6 17 19 20 21 21 18 15 14
10 8 10 12 11 11 9 10 9 10 10 11 13 15 12 16 16 17 18 23 23 22 22 23 23 22 16 8 7 12 5 8 7 6 2 18 17 20 24 21 18 16 15
6 8 10 11 10 7 9 6 6 5 7 8 14 14 13 12 13 12 10 10 11 14 9 12 11 9 11 9 8 7 9 8 6 5 9 14 16 18 23 21 21 19 17
6 7 8 9 10 8 5 5 5 5 7 7 9 13 11 10 14 13 10 12 11 11 12 10 6 9 10 11 11 8 9 8 7 4 5 6 7 19 21 19 19 20 17
7 7 8 8 9 9 6 4 5 5 6 7 8 11 9 10 11 11 13 12 12 11 12 10 9 7 7 9 9 9 8 8 8 4 2 12 4 13 20 18 21 22 19
5 6 7 8 10 10 9 8 5 4 5 5 5 9 12 9 9 11 11 12 13 11 11 11 9 5 5 5 8 8 7 7 7 8 6 7 16 18 16 19 20 19 17
4 5 7 8 9 10 9 8 6 5 5 7 7 9 12 11 11 10 11 10 13 11 13 13 13 5 4 4 5 6 6 7 7 7 7 7 8 16 15 15 21 18 20
5 6 7 8 9 10 9 7 7 7 5 6 7 7 13 13 14 11 10 11 12 12 11 11 12 7 3 3 3 4 5 5 6 8 7 6 6 7 13 25 18 18 18
5 6 7 7 8 8 9 8 8 7 4 4 6 8 12 11 13 10 9 11 13 10 12 11 12 11 6 3 2 3 4 4 5 5 6 7 9 7 6 16 20 9 13
5 6 6 5 7 7 6 6 6 7 6 6 5 8 10 9 12 10 9 11 12 10 12 12 14 12 7 4 3 2 2 2 3 4 5 5 6 6 8 10 10 9 17
6 6 5 6 7 5 4 6 6 7 7 7 7 9 10 10 11 11 10 11 11 11 13 14 10 15 11 3 3 0 1 2 3 3 2 4 5 6 6 9 6 8 7
4 5 6 6 7 6 4 4 3 5 5 5 8 10 11 11 11 11 11 11 11 10 14 14 15 10 8 12 4 3 2 0 1 3 3 4 3 3 6 7 7 7 6
5 4 6 6 7 6 7 4 5 4 6 7 8 9 11 11 11 11 11 10 11 9 10 13 13 16 10 10 14 4 2 2 2 1 2 2 2 3 3 4 3 4 5
3 5 7 6 7 7 7 6 9 6 6 6 7 7 8 10 11 12 12 11 11 9 11 11 11 10 10 11 9 10 9 1 1 2 1 1 1 1 2 1 2 2 4
6 5 6 6 7 6 6 7 6 7 5 5 6 10 10 10 11 13 14 12 11 9 10 12 13 12 8 8 8 8 10 3 3 4 1 1 0 2 2 3 2 2 3
5 6 6 7 6 6 6 7 8 8 8 7 9 8 9 8 9 12 14 12 11 11 11 10 10 12 11 8 9 8 5 4 4 2 2 2 1 1 2 2 3 2 3
Wind_Direction
343 0 6 355 353 355 355 355 353 351 348 352 356 359 4 360 0 358 355 356 360 348 342 342 337 315 304 290 277 258 232 192 160 146 136 142 144 129 139 136 112 113 116
332 1 4 358 357 357 359 359 356 354 355 359 2 359 0 359 1 0 358 356 350 357 341 339 336 329 314 297 290 260 221 182 149 143 143 142 144 168 162 177 133 134 140
2 357 356 359 1 2 4 0 1 2 360 2 4 6 4 1 355 356 353 352 350 346 347 344 341 340 338 322 297 266 230 195 160 154 148 142 141 167 153 138 142 141 143
0 358 348 1 4 7 11 5 7 6 1 3 4 7 5 3 358 356 356 352 347 342 346 343 336 340 333 328 301 276 238 201 173 163 156 161 168 163 162 157 149 146 148
358 2 356 6 8 10 15 13 12 8 6 2 358 2 5 4 5 1 355 350 348 345 343 342 340 337 333 325 324 274 233 207 183 182 176 174 165 162 162 163 156 155 150
2 2 355 9 12 11 18 13 14 14 11 11 13 5 0 5 4 2 358 354 350 347 344 341 336 341 337 328 316 287 234 203 186 200 187 184 170 159 169 167 155 157 139
355 359 0 10 9 6 18 13 16 13 16 10 10 6 2 -0 5 4 0 356 352 348 347 342 333 330 328 322 322 312 249 203 187 197 189 163 164 158 165 166 156 149 145
6 7 3 1 7 9 18 16 18 14 12 14 12 8 6 1 4 3 358 355 354 351 350 341 339 334 332 323 324 315 253 199 200 191 171 154 157 159 165 165 164 154 148
5 15 5 357 356 5 20 15 17 16 12 10 8 5 4 4 5 1 358 356 351 351 351 347 343 339 334 327 328 318 273 200 185 165 180 151 154 163 167 166 161 158 148
20 17 6 357 357 2 18 16 18 19 13 10 6 1 -0 357 358 358 356 354 353 351 349 349 347 347 338 334 336 345 267 171 175 144 194 157 158 161 166 161 146 150 153
15 7 3 354 360 13 21 13 19 19 14 11 6 3 359 354 354 350 347 354 353 351 348 350 349 350 342 333 339 346 16 201 147 131 192 154 162 166 163 152 145 150 149
12 0 8 3 359 20 12 11 15 10 10 10 5 0 0 360 353 351 348 346 348 351 345 348 347 348 343 332 330 339 26 350 112 124 186 156 163 182 157 155 151 165 165
5 7 355 1 360 16 11 358 4 7 8 6 9 8 357 359 358 355 347 341 341 346 345 340 343 343 339 336 331 353 3 17 10 93 147 158 176 175 163 166 153 165 161
10 2 354 354 4 1 2 6 360 2 13 11 7 3 6 1 356 356 349 345 345 342 334 334 333 337 341 340 343 355 10 10 9 15 23 26 203 177 176 169 160 157 155
21 1 2 7 7 358 357 346 7 9 17 5 11 7 1 1 358 350 350 348 344 338 329 327 327 338 340 342 345 354 11 357 31 21 14 27 352 207 179 164 158 164 168
22 12 13 15 4 3 2 348 349 360 16 14 5 4 2 356 352 350 350 349 346 338 333 323 320 323 334 340 346 349 5 7 28 31 4 12 7 2 188 176 170 170 165
360 20 21 23 11 3 359 357 349 355 15 21 11 4 2 4 353 347 349 348 345 341 339 338 328 319 331 341 346 344 350 11 19 36 33 21 344 16 0 195 171 170 166
27 36 28 25 13 6 354 355 0 8 15 16 10 6 2 359 356 349 343 353 343 345 345 346 337 322 324 346 341 357 343 354 25 32 42 31 1 21 359 10 171 164 169
51 45 34 25 14 6 354 351 356 353 15 14 12 9 1 357 355 352 342 345 349 346 351 351 338 334 322 334 338 17 347 355 27 35 41 30 32 27 0 13 29 42 171
62 51 41 30 21 9 352 339 351 358 359 8 3 7 360 357 355 353 344 347 347 350 352 354 345 335 320 319 318 353 342 1 13 44 44 46 40 34 27 19 12 16 31
59 51 34 38 20 16 358 359 3 359 359 1 4 354 359 359 357 354 351 348 351 346 348 352 350 344 341 302 289 234 258 35 18 46 62 58 34 44 53 38 1 24 3
92 49 36 44 32 15 351 355 2 355 356 353 358 358 355 356 356 356 351 350 347 347 351 351 359 352 332 342 316 273 335 131 81 7 45 67 51 51 56 54 31 30 26
76 48 56 53 41 23 3 0 9 353 0 2 359 351 348 349 347 354 352 355 349 349 354 348 355 358 345 337 336 317 333 354 337 45 55 45 34 46 55 68 83 74 76
105 69 68 58 45 30 13 26 32 12 2 353 348 342 345 348 347 353 354 353 350 346 353 353 346 352 355 350 333 345 321 81 323 319 97 94 358 103 137 149 151 143 109
97 91 80 68 47 27 26 39 40 21 352 342 350 348 350 349 347 354 354 353 349 348 346 352 354 349 354 352 345 340 341 322 252 257 243 112 233 238 191 177 176 172 122
93 88 78 75 50 30 31 36 41 26 358 352 358 353 351 344 342 353 351 350 347 346 348 346 347 352 347 359 350 347 334 330 325 356 351 53 291 241 205 160 174 170 127